Columbus, MS

3:16 PM CST on February 20, 2017 (GMT -0600)
Columbus Air Force Base

Weather History for KCBM - October, 2013

Change the Weather History Date:

Tuesday, October 1, 2013

  Actual Average Record
Temperature  
Mean Temperature 72 °F -  
Max Temperature 84 °F 79 °F 93 °F (1998)
Min Temperature 60 °F 56 °F 44 °F (1999)
Cooling Degree Days 7    
Growing Degree Days 22 (Base 50)    
Moisture  
Dew Point 65 °F    
Average Humidity 91    
Maximum Humidity 100    
Minimum Humidity 54    
Precipitation  
Precipitation 0.00 in - - ()
Sea Level Pressure  
Sea Level Pressure 30.07 in    
Wind  
Wind Speed 4 mph (SE)    
Max Wind Speed 8 mph    
Max Gust Speed -    
Visibility 6 miles    
Events Fog    
Averages and records for this station are not official NWS values.
T = Trace of Precipitation, MM = Missing Value Source: NWS Daily Summary

Daily Weather History Graph

Daily Weather History Graph

Search for Another Location

Airport or City:

Trip Planner

Search our weather history database for the weather conditions in past years. The results will help you decide how hot, cold, wet, or windy it might be!

Date:

Astronomy

Oct. 01, 2013 Rise Set
Actual Time 6:48 AM CDT 6:37 PM CDT
Civil Twilight 6:23 AM CDT 7:02 PM CDT
Nautical Twilight 5:54 AM CDT 7:31 PM CDT
Astronomical Twilight 5:25 AM CDT 8:00 PM CDT
Moon 3:30 AM CDT (10/1) 4:34 PM CDT (10/1)
Length of Visible Light 12h 39m
Length of Day
11h 49m
Waning Crescent, 12% of the Moon is Illuminated
Oct 1
Waning Crescent
Oct 4
New
Oct 11
First Quarter
Oct 18
Full
Oct 26
Last Quarter

Hourly Weather History & Observations

Time (CDT) Temp. Heat Index Dew Point Humidity Pressure Visibility Wind Dir Wind Speed Gust Speed Precip Events Conditions
12:58 AM 62.6 °F - 62.6 °F 100% 30.01 in 10.0 mi SE 5.8 mph - N/A   Clear
1:58 AM 61.7 °F - 61.7 °F 100% 30.02 in 9.0 mi Calm Calm - N/A   Clear
2:23 AM 60.8 °F - 60.8 °F 100% 30.01 in 3.0 mi East 1.2 mph - N/A   Clear
2:46 AM 60.8 °F - 60.8 °F 100% 30.02 in 10.0 mi SSE 5.8 mph - N/A   Mostly Cloudy
2:59 AM 61.9 °F - 61.9 °F 100% 30.03 in 9.0 mi SE 5.8 mph - N/A   Overcast
4:08 AM 64.4 °F - 64.4 °F 100% 30.03 in 0.5 mi ESE 4.6 mph - N/A Fog Fog
4:56 AM 64.4 °F - 64.4 °F 100% 30.03 in 0.5 mi SE 5.8 mph - N/A Fog Fog
5:18 AM 64.4 °F - 64.4 °F 100% 30.05 in 0.8 mi South 4.6 mph - N/A   Mist
5:23 AM 64.4 °F - 64.4 °F 100% 30.05 in 1.0 mi South 3.5 mph - N/A   Overcast
5:28 AM 64.4 °F - 64.4 °F 100% 30.05 in 1.5 mi South 4.6 mph - N/A   Overcast
5:33 AM 64.4 °F - 64.4 °F 100% 30.05 in 2.0 mi SSE 5.8 mph - N/A   Overcast
5:43 AM 64.4 °F - 64.4 °F 100% 30.05 in 1.5 mi SE 5.8 mph - N/A   Overcast
5:48 AM 64.4 °F - 64.4 °F 100% 30.05 in 1.2 mi SE 4.6 mph - N/A   Overcast
5:58 AM 64.4 °F - 64.4 °F 100% 30.07 in 1.0 mi ESE 5.8 mph - N/A   Overcast
6:03 AM 64.4 °F - 64.4 °F 100% 30.06 in 0.8 mi ESE 4.6 mph - N/A   Overcast
6:13 AM 64.4 °F - 64.4 °F 100% 30.07 in 1.0 mi ESE 3.5 mph - N/A   Overcast
6:23 AM 64.4 °F - 64.4 °F 100% 30.07 in 1.5 mi ESE 4.6 mph - N/A   Overcast
6:28 AM 64.4 °F - 64.4 °F 100% 30.07 in 1.8 mi ESE 5.8 mph - N/A   Overcast
6:33 AM 64.4 °F - 64.4 °F 100% 30.07 in 2.0 mi SE 4.6 mph - N/A   Overcast
6:38 AM 64.4 °F - 64.4 °F 100% 30.08 in 2.5 mi SE 4.6 mph - N/A   Overcast
6:43 AM 64.4 °F - 64.4 °F 100% 30.08 in 3.0 mi SSE 4.6 mph - N/A   Overcast
6:48 AM 64.4 °F - 64.4 °F 100% 30.08 in 4.0 mi SE 4.6 mph - N/A   Overcast
6:53 AM 64.4 °F - 64.4 °F 100% 30.08 in 5.0 mi ESE 4.6 mph - N/A   Overcast
6:58 AM 64.0 °F - 64.0 °F 100% 30.09 in 6.0 mi SE 5.8 mph - N/A   Overcast
7:58 AM 64.4 °F - 64.4 °F 100% 30.10 in 10.0 mi SE 5.8 mph - N/A   Overcast
8:03 AM 64.4 °F - 64.4 °F 100% 30.09 in 10.0 mi SE 4.6 mph - N/A   Overcast
8:43 AM 66.2 °F - 66.2 °F 100% 30.11 in 10.0 mi SSE 4.6 mph - N/A   Mostly Cloudy
8:58 AM 65.8 °F - 65.8 °F 100% 30.12 in 10.0 mi SSE 5.8 mph - N/A   Mostly Cloudy
9:03 AM 66.2 °F - 66.2 °F 100% 30.11 in 10.0 mi SE 3.5 mph - N/A   Mostly Cloudy
9:48 AM 68.0 °F - 66.2 °F 94% 30.12 in 10.0 mi SSE 6.9 mph - N/A   Mostly Cloudy
9:53 AM 68.0 °F - 66.2 °F 94% 30.12 in 10.0 mi SSE 6.9 mph - N/A   Mostly Cloudy
9:58 AM 68.2 °F - 66.0 °F 93% 30.13 in 10.0 mi SSE 4.6 mph - N/A   Mostly Cloudy
10:58 AM 73.4 °F - 66.2 °F 78% 30.13 in 10.0 mi Variable 4.6 mph - N/A   Mostly Cloudy
11:58 AM 77.5 °F - 67.5 °F 71% 30.11 in 10.0 mi South 8.1 mph - N/A   Partly Cloudy
12:58 PM 80.4 °F 83.0 °F 67.5 °F 65% 30.09 in 10.0 mi SE 6.9 mph - N/A   Clear
1:58 PM 81.9 °F 84.2 °F 66.7 °F 60% 30.07 in 10.0 mi SSE 4.6 mph - N/A   Scattered Clouds
2:28 PM 84.2 °F 87.3 °F 68.0 °F 58% 30.04 in 10.0 mi SE 3.5 mph - N/A   Mostly Cloudy
2:48 PM 82.4 °F 84.6 °F 66.2 °F 58% 30.04 in 10.0 mi SSE 4.6 mph - N/A   Scattered Clouds
2:58 PM 82.9 °F 84.8 °F 65.5 °F 55% 30.05 in 10.0 mi SW 3.5 mph - N/A   Partly Cloudy
3:58 PM 84.6 °F 86.8 °F 66.2 °F 54% 30.04 in 10.0 mi South 5.8 mph - N/A   Clear
4:58 PM 83.3 °F 85.5 °F 66.0 °F 56% 30.04 in 10.0 mi SSE 3.5 mph - N/A   Clear
5:58 PM 81.5 °F 84.1 °F 67.3 °F 62% 30.04 in 10.0 mi SSE 6.9 mph - N/A   Clear
6:58 PM 74.8 °F - 68.9 °F 82% 30.05 in 10.0 mi Calm Calm - N/A   Clear
7:58 PM 71.1 °F - 68.5 °F 92% 30.06 in 10.0 mi Calm Calm - N/A   Clear
8:58 PM 71.4 °F - 69.3 °F 93% 30.07 in 10.0 mi Calm Calm - N/A   Clear
9:58 PM 69.6 °F - 69.6 °F 100% 30.08 in 10.0 mi Calm Calm - N/A   Clear
10:58 PM 69.1 °F - 69.1 °F 100% 30.08 in 10.0 mi Calm Calm - N/A   Clear
11:58 PM 68.2 °F - 68.2 °F 100% 30.09 in 4.0 mi Calm Calm - N/A   Clear